TimeCST,TemperatureF,Dew PointF,Humidity,Sea Level PressureIn,VisibilityMPH,Wind Direction,Wind SpeedMPH,Gust SpeedMPH,PrecipitationIn,Events,Conditions,WindDirDegrees,DateUTC
12:15 AM,50.7,46.8,86,30.28,10.0,NNW,6.9,-,N/A,,Overcast,340,2013-01-06 06:15:00
12:35 AM,50.5,46.6,86,30.27,10.0,NNW,5.8,-,N/A,,Overcast,340,2013-01-06 06:35:00
12:55 AM,50.5,46.8,87,30.27,10.0,North,8.1,-,N/A,,Overcast,350,2013-01-06 06:55:00
1:15 AM,50.7,46.8,86,30.27,10.0,NNW,6.9,-,N/A,,Overcast,340,2013-01-06 07:15:00
1:35 AM,50.7,46.8,86,30.28,10.0,NNW,6.9,-,N/A,,Overcast,330,2013-01-06 07:35:00
1:55 AM,50.0,46.4,87,30.28,10.0,NNW,8.1,-,N/A,,Overcast,340,2013-01-06 07:55:00
2:15 AM,48.6,45.3,89,30.28,10.0,NNW,5.8,-,N/A,,Scattered Clouds,340,2013-01-06 08:15:00
2:35 AM,47.1,44.4,90,30.28,10.0,NNW,5.8,-,N/A,,Clear,340,2013-01-06 08:35:00
2:55 AM,45.9,43.7,92,30.28,10.0,North,4.6,-,N/A,,Clear,350,2013-01-06 08:55:00
3:15 AM,45.7,43.9,93,30.28,10.0,NNW,5.8,-,N/A,,Clear,340,2013-01-06 09:15:00
3:35 AM,44.4,42.6,93,30.28,10.0,North,4.6,-,N/A,,Clear,350,2013-01-06 09:35:00
3:55 AM,44.4,43.0,95,30.28,10.0,NNW,3.5,-,N/A,,Clear,330,2013-01-06 09:55:00
4:15 AM,43.7,42.3,95,30.28,7.0,NNW,5.8,-,N/A,,Clear,340,2013-01-06 10:15:00
4:35 AM,43.0,41.5,95,30.28,7.0,North,3.5,-,N/A,,Clear,350,2013-01-06 10:35:00
4:55 AM,42.8,41.5,95,30.28,4.0,NNW,5.8,-,N/A,,Clear,330,2013-01-06 10:55:00
5:35 AM,42.1,40.8,95,30.28,4.0,NNW,6.9,-,N/A,,Clear,340,2013-01-06 11:35:00
6:15 AM,41.5,40.5,96,30.29,4.0,North,4.6,-,N/A,,Clear,360,2013-01-06 12:15:00
6:35 AM,41.0,39.7,95,30.30,4.0,North,5.8,-,N/A,,Clear,350,2013-01-06 12:35:00
6:55 AM,40.6,39.4,95,30.30,3.0,NNW,8.1,-,N/A,,Clear,340,2013-01-06 12:55:00
7:15 AM,41.0,40.1,97,30.31,4.0,North,6.9,-,N/A,,Clear,350,2013-01-06 13:15:00
7:35 AM,41.0,39.9,96,30.31,2.5,North,6.9,-,N/A,,Clear,350,2013-01-06 13:35:00
7:55 AM,40.8,39.7,96,30.32,2.5,North,8.1,-,N/A,,Clear,360,2013-01-06 13:55:00
8:35 AM,44.4,43.3,96,30.34,7.0,North,10.4,-,N/A,,Scattered Clouds,360,2013-01-06 14:35:00
8:55 AM,46.4,45.0,95,30.34,10.0,North,10.4,-,N/A,,Scattered Clouds,10,2013-01-06 14:55:00
9:15 AM,47.8,44.8,89,30.35,10.0,North,9.2,-,N/A,,Scattered Clouds,360,2013-01-06 15:15:00
9:35 AM,49.1,44.6,84,30.35,10.0,North,10.4,-,N/A,,Scattered Clouds,10,2013-01-06 15:35:00
9:55 AM,51.3,45.0,79,30.36,10.0,North,8.1,-,N/A,,Clear,360,2013-01-06 15:55:00
10:15 AM,53.2,45.7,76,30.35,10.0,North,8.1,-,N/A,,Scattered Clouds,350,2013-01-06 16:15:00
10:35 AM,54.9,45.7,71,30.35,10.0,North,12.7,-,N/A,,Clear,350,2013-01-06 16:35:00
10:55 AM,55.9,45.5,68,30.34,10.0,North,9.2,-,N/A,,Clear,350,2013-01-06 16:55:00
11:35 AM,59.5,45.3,59,30.33,10.0,North,10.4,17.3,N/A,,Clear,10,2013-01-06 17:35:00
12:15 PM,60.8,43.7,53,30.31,10.0,North,11.5,-,N/A,,Clear,10,2013-01-06 18:15:00
12:35 PM,61.9,43.9,52,30.30,10.0,NNE,12.7,-,N/A,,Clear,20,2013-01-06 18:35:00
12:55 PM,61.9,43.3,51,30.28,10.0,North,13.8,18.4,N/A,,Clear,10,2013-01-06 18:55:00
1:15 PM,61.9,43.0,50,30.28,10.0,North,11.5,-,N/A,,Clear,10,2013-01-06 19:15:00
1:35 PM,62.4,43.5,50,30.27,10.0,NNE,9.2,16.1,N/A,,Clear,30,2013-01-06 19:35:00
1:55 PM,63.1,43.2,48,30.26,10.0,NE,9.2,-,N/A,,Clear,40,2013-01-06 19:55:00
2:15 PM,63.5,42.6,47,30.26,10.0,NNE,11.5,16.1,N/A,,Clear,20,2013-01-06 20:15:00
2:35 PM,63.7,41.9,45,30.26,10.0,NE,8.1,-,N/A,,Clear,40,2013-01-06 20:35:00
2:55 PM,64.2,41.7,44,30.26,10.0,NE,8.1,-,N/A,,Clear,40,2013-01-06 20:55:00
3:15 PM,64.4,41.5,43,30.26,10.0,NNE,8.1,-,N/A,,Clear,30,2013-01-06 21:15:00
3:35 PM,64.4,41.2,43,30.27,10.0,NNE,6.9,-,N/A,,Clear,30,2013-01-06 21:35:00
3:55 PM,64.2,41.4,43,30.27,10.0,East,8.1,-,N/A,,Clear,80,2013-01-06 21:55:00
4:15 PM,63.3,42.6,47,30.27,10.0,ENE,10.4,-,N/A,,Clear,70,2013-01-06 22:15:00
4:35 PM,62.8,43.0,48,30.26,10.0,ENE,11.5,-,N/A,,Clear,70,2013-01-06 22:35:00
4:55 PM,61.5,42.6,50,30.26,10.0,East,10.4,-,N/A,,Clear,80,2013-01-06 22:55:00
5:15 PM,60.4,43.5,54,30.27,10.0,East,9.2,-,N/A,,Clear,100,2013-01-06 23:15:00
5:35 PM,58.1,45.3,62,30.27,10.0,East,5.8,-,N/A,,Clear,80,2013-01-06 23:35:00
5:55 PM,56.3,45.5,67,30.27,10.0,East,5.8,-,N/A,,Clear,90,2013-01-06 23:55:00
6:15 PM,54.3,45.5,72,30.28,10.0,East,3.5,-,N/A,,Clear,90,2013-01-07 00:15:00
6:35 PM,53.6,45.7,75,30.28,10.0,East,3.5,-,N/A,,Clear,100,2013-01-07 00:35:00
6:55 PM,52.9,46.0,78,30.29,10.0,Calm,Calm,-,N/A,,Clear,0,2013-01-07 00:55:00
7:15 PM,53.1,46.4,78,30.29,10.0,Calm,Calm,-,N/A,,Clear,0,2013-01-07 01:15:00
7:35 PM,52.2,46.0,80,30.29,10.0,Calm,Calm,-,N/A,,Clear,0,2013-01-07 01:35:00
7:55 PM,51.6,45.9,81,30.30,10.0,East,3.5,-,N/A,,Clear,80,2013-01-07 01:55:00
8:15 PM,50.9,45.7,82,30.30,10.0,Calm,Calm,-,N/A,,Clear,0,2013-01-07 02:15:00
8:35 PM,50.7,45.5,82,30.31,10.0,NNE,3.5,-,N/A,,Clear,30,2013-01-07 02:35:00
8:55 PM,49.3,44.6,84,30.31,10.0,NE,4.6,-,N/A,,Clear,50,2013-01-07 02:55:00
9:15 PM,49.1,44.2,83,30.31,10.0,NE,4.6,-,N/A,,Clear,50,2013-01-07 03:15:00
10:15 PM,46.8,42.8,86,30.31,10.0,NE,5.8,-,N/A,,Clear,40,2013-01-07 04:15:00
10:35 PM,45.9,42.1,87,30.31,10.0,NE,4.6,-,N/A,,Clear,50,2013-01-07 04:35:00
10:55 PM,45.5,41.5,86,30.31,10.0,NE,3.5,-,N/A,,Clear,40,2013-01-07 04:55:00
11:35 PM,45.7,41.4,85,30.30,10.0,NE,8.1,-,N/A,,Clear,40,2013-01-07 05:35:00
11:55 PM,45.9,41.4,84,30.31,10.0,NNE,5.8,-,N/A,,Clear,30,2013-01-07 05:55:00